Regional Weather Roundup
Issued by NWS Little Rock, AR

Home | Current Version | Previous Version | Graphics & Text | Print | Product List | Glossary On
Versions: 1 2 3 4 5 6 7 8 9 10 11 12 13 14 15 16 17 18 19 20 21 22 23 24 25 26 27 28 29 30 31 32 33 34 35 36 37 38 39 40 41 42 43 44 45 46 47 48 49 50
000
ASUS44 KLZK 292305
RWRLZK

WEATHER ROUNDUP FOR ARKANSAS
NATIONAL WEATHER SERVICE LITTLE ROCK AR
600 PM CDT SAT AUG 29 2015

NOTE: "FAIR" INDICATES FEW OR NO CLOUDS BELOW 12,000 FEET WITH NO
SIGNIFICANT WEATHER AND/OR OBSTRUCTIONS TO VISIBILITY.

ARZ001-003-010-029-300000-
NORTHWEST ARKANSAS

CITY           SKY/WX    TMP DP  RH WIND       PRES   REMARKS
FAYETTEVILLE   MOSUNNY   81  69  67 S7        29.99S
FORT SMITH     MOSUNNY   88  67  49 SE7       29.93S HX  91
BENTONVILLE    SUNNY     84  66  54 SW9       29.99S HX  86
ROGERS         CLOUDY    84  69  60 S14       29.99S HX  88
SILOAM SPGS    PTSUNNY   82  66  57 S9        29.96S HX  85
HIGHFILL       PTSUNNY   84  71  65 S10       29.98S HX  89
SPRINGDALE     PTSUNNY   84  68  58 S12G17    30.01R HX  87
$$

ARZ004-005-016-300000-
NORTH CENTRAL ARKANSAS

CITY           SKY/WX    TMP DP  RH WIND       PRES   REMARKS
BATESVILLE     PTSUNNY   81  70  69 CALM      29.99F
FLIPPIN        MOSUNNY   82  63  51 SE5       29.98S
MTN HOME       MOSUNNY   79  64  60 S7        29.99S
$$

ARZ040-041-300000-
WEST CENTRAL ARKANSAS

CITY           SKY/WX    TMP DP  RH WIND       PRES   REMARKS
MENA           PTSUNNY   86  72  62 S3        30.00S HX  92
MOUNT IDA      PTSUNNY   83  70  64 VRB3      29.98F HX  87
$$

ARZ009-017-025-026-028-300000-
NORTHEAST ARKANSAS

CITY           SKY/WX    TMP DP  RH WIND       PRES   REMARKS
JONESBORO      CLOUDY    83  64  52 S3        29.99F
NEWPORT        CLOUDY    82  73  74 CALM      30.00S HX  87
WALNUT RIDGE   PTSUNNY   82  66  57 S6        29.99S HX  85
BLYTHEVILLE    PTSUNNY   85  72  65 NW5       30.00S HX  91
$$

ARZ022-023-033-042-044-300000-
CENTRAL ARKANSAS

CITY           SKY/WX    TMP DP  RH WIND       PRES   REMARKS
LITTLE ROCK    CLOUDY    86  63  45 S3        29.98F HX  87
N LITTLE ROCK  CLOUDY    85  67  55 SW5       29.98F HX  88
JACKSONVILLE   PTSUNNY   86  67  52 S5        29.98S HX  88
SEARCY         CLOUDY    83  69  62 CALM      30.00S HX  86
HOT SPRINGS    CLOUDY    84  67  56 S5        29.99F HX  86
RUSSELLVILLE   MOSUNNY   83  69  62 VRB3      29.97F HX  86
$$

ARZ036-300000-
EAST ARKANSAS

CITY           SKY/WX    TMP DP  RH WIND       PRES   REMARKS
WEST MEMPHIS   PTSUNNY   83  69  62 CALM      29.98R HX  86
$$

ARZ050-053-066-070-073-300000-
SOUTHWEST ARKANSAS

CITY           SKY/WX    TMP DP  RH WIND       PRES   REMARKS
ARKADELPHIA    FAIR      86  72  62 CALM      29.98S HX  92
CAMDEN         PTSUNNY   86  64  48 S3        29.97S HX  87
TEXARKANA      MOSUNNY   88  67  49 SW9       29.97F HX  91
EL DORADO      FAIR      90  63  40 N6        29.97F HX  91
DE QUEEN       PTSUNNY   86  73  65 SE6       29.94F HX  93
$$

ARZ056-057-069-300000-
SOUTHEAST ARKANSAS

CITY           SKY/WX    TMP DP  RH WIND       PRES   REMARKS
PINE BLUFF     CLOUDY    87  62  43 W5        29.97F HX  87
STUTTGART      PTSUNNY   88  64  45 SW3       29.98S HX  89
MONTICELLO     MOSUNNY   91  65  41 NE3       29.96F HX  93

$$





USA.gov is the U.S. government's official web portal to all federal, state and local government web resources and services.